Location: �perlecques
(50.8057°N, 2.1521°E)
Time: 19:44:12
(UTC+00:00)

Tiros 1 - Pass Details

Date: 05 August 2021
Orbit: 630 x 663 km, 48.4° (Epoch: 28 September)

Event Time Altitude Azimuth Distance (km) Brightness Sun altitude
Rises 16:22:13 0° 220° (SW) 2,984 11.2 27.9°
Reaches altitude 10° 16:24:48 10° 209° (SSW) 2,072 10.3 27.5°
Maximum altitude 16:28:54 29° 150° (SSE) 1,205 8.5 26.8°
Drops below altitude 10° 16:33:00 10° 91° (E) 2,067 9.3 26.2°
Sets 16:35:34 0° 80° (E) 2,975 10.0 25.8°
